Regional Weather Roundup
Issued by NWS Bismarck, ND

Home | Current Version | Previous Version | Text Only | Print | Product List | Glossary On
Versions: 1 2 3 4 5 6 7 8 9 10 11 12 13 14 15 16 17 18 19 20 21 22 23 24 25 26 27 28 29 30 31 32 33 34 35 36 37 38 39 40 41 42 43 44 45 46 47 48 49 50
000
ASUS43 KBIS 260510
RWRBIS

NWR BROADCAST TEXT
NATIONAL WEATHER SERVICE BISMARCK ND
1200 AM CDT THU MAY 26 2016

NOTE: "FAIR" INDICATES FEW OR NO CLOUDS BELOW 12,000 FEET WITH NO
SIGNIFICANT WEATHER AND/OR OBSTRUCTIONS TO VISIBILITY.


CITY           SKY/WX    TMP DP  RH WIND       PRES   REMARKS
WILLISTON      CLEAR     47  45  93 NW6       29.82S
MINOT          CLOUDY    60  55  83 S10       29.73F
MINOT AFB      CLOUDY    57  53  88 NW1       29.73S
BISMARCK       PTCLDY    55  51  86 W8        29.80R
DICKINSON      CLEAR     41  38  89 W7        29.81F
GARRISON         N/A     55  51  86 W9        29.78S
HETTINGER ARPT CLEAR     42  38  85 CALM      29.86S
JAMESTOWN      CLOUDY    57  56  96 NW6       29.73R
BEACH          FAIR      45  45 100 CALM      29.86F
CARRINGTON     MOCLDY    57  55  94 CALM      29.76S
HAZEN          FAIR      50  48  93 SW3       29.82R
LINTON           N/A     54  54 100 W9          N/A
MANDAN         FAIR      48  48 100 W6        29.81R
OAKES            N/A    N/A N/A N/A MISG        N/A
RUGBY          MOCLDY    55  55 100 E6        29.75S
STANLEY        CLOUDY    54  54 100 NW10G16   29.79F
WATFORD CITY   FAIR      45  45 100 S3        29.82S
$$

CITY           SKY/WX    TMP DP  RH WIND       PRES   REMARKS
GRAND FORKS    CLOUDY    59  56  89 SW7       29.70R
GRAND FORKS AF CLOUDY    58  58  99 W7        29.71R
DEVILS LAKE    PTCLDY    55  53  93 CALM      29.75R
FARGO          LGT RAIN  58  54  86 N5        29.73F
CAVALIER       LGT RAIN  57  57 100 NW9       29.66S
GRAFTON        CLOUDY    57  57 100 W9        29.69R
GWINNER        FAIR      55  54  94 CALM      29.76F
LANGDON        CLOUDY    55  55 100 N13       29.72S
ROLLA          CLOUDY    54  54 100 NE6       29.77S FOG
WALHALLA       LGT RAIN  55  55 100 N14       29.67F
$$

CITY           SKY/WX    TMP DP  RH WIND       PRES   REMARKS
ABERDEEN       CLEAR     57  50  77 NW6       29.79R
MOBRIDGE       CLEAR     53  48  83 N5        29.80R
BUFFALO          N/A     49  42  77 W7        29.80F
RAPID CITY     PTCLDY    50  46  86 NW6       29.89F
GLASGOW        CLOUDY    54  44  69 SW7       29.84R
SIDNEY         CLEAR     48  46  93 CALM      29.82S
WOLF POINT     PTCLDY    48  43  82 W5        29.83S
GLENDIVE       MOCLDY    54  48  82 S3        29.86S
MILES CITY     MOCLDY    55  48  77 SW12      29.86R
BAKER          PTCLDY    50  44  80 W6        29.86S
$$

CITY           SKY/WX    TMP DP  RH WIND       PRES   REMARKS
BILLINGS       MOCLDY    49  44  83 S6        29.94S
GREAT FALLS    PTCLDY    49  42  77 W3        29.93S
REGINA         LGT RAIN  52  52 100 NE9       29.85S
ESTEVAN        LGT RAIN  54  52  94 E3        29.78F
$$





USA.gov is the U.S. government's official web portal to all federal, state and local government web resources and services.